{"data":{"norad_id":69899,"epoch":"2026-09-20T03:47:43.429056Z","epoch_age_seconds":47290,"freshness":"FRESH","line1":"1 69899U 26156AG  26263.15814154  .00001173  00000+0  12332-3 0  9994","line2":"2 69899  97.7431 162.2766 0003597 239.5504 120.5359 14.91307313 11151","mean_motion":14.91307313,"eccentricity":0.0003597,"inclination_deg":97.7431,"raan_deg":162.2766,"arg_perigee_deg":239.5504,"mean_anomaly_deg":120.5359,"bstar":0.00012332,"rev_number":1115,"period_min":96.559574773573,"perigee_km":591.35032292066,"apogee_km":596.36597623126,"semimajor_km":6971.995149576,"source":"CELESTRAK","updated_at":"2026-09-20T09:00:25.171047Z"}}